Terug naar catalogus

LEOPARD

ActiefWetenschapVLEO
NORAD 67687·PAYLOAD·🇯🇵 Japan

Gelanceerd Nov 20, 1998 vanaf Baikonur Cosmodrome

Loading…

Volgende Passages (komende 24 uur)

TLE

VersSource: Space-Track

Epoch: Sep 14, 2026, 13:42 UTC

1 67687U 98067YD  26257.57089780  .00145956  00000-0  99454-3 0  9994
2 67687  51.6251 200.1566 0008181 138.9142 221.2474 15.73856885 34210

Volg LEOPARD in realtime met AllMySat

Download on the App Store